Martha's Vineyard, MA

7:49 PM EST on January 17, 2018 (GMT -0500)
Martha's Vineyard

Weather History for KMVY - August, 2013

Change the Weather History Date:

Tuesday, August 13, 2013

  Actual Average Record
Temperature  
Mean Temperature 68 °F -  
Max Temperature 70 °F 77 °F 88 °F (2016)
Min Temperature 66 °F 61 °F 42 °F (2006)
Cooling Degree Days 2    
Growing Degree Days 18 (Base 50)    
Moisture  
Dew Point 66 °F    
Average Humidity 93    
Maximum Humidity 100    
Minimum Humidity 88    
Precipitation  
Precipitation 0.58 in - - ()
Sea Level Pressure  
Sea Level Pressure 29.81 in    
Wind  
Wind Speed 3 mph (ESE)    
Max Wind Speed 9 mph    
Max Gust Speed -    
Visibility 3 miles    
Events Fog , Rain , Thunderstorm    
Averages and records for this station are not official NWS values.
T = Trace of Precipitation, MM = Missing Value Source: NWS Daily Summary

Daily Weather History Graph

Daily Weather History Graph

Search for Another Location

Airport or City:

Trip Planner

Search our weather history database for the weather conditions in past years. The results will help you decide how hot, cold, wet, or windy it might be!

Date:

Astronomy

Aug. 13, 2013 Rise Set
Actual Time 5:49 AM EDT 7:44 PM EDT
Civil Twilight 5:19 AM EDT 8:13 PM EDT
Nautical Twilight 4:43 AM EDT 8:50 PM EDT
Astronomical Twilight 4:03 AM EDT 9:29 PM EDT
Moon 12:46 PM EDT (8/13) 11:11 PM EDT (8/13)
Length of Visible Light 14h 54m
Length of Day
13h 54m
Waxing Crescent, 41% of the Moon is Illuminated
Aug 13
Waxing Crescent
Aug 14
First Quarter
Aug 20
Full
Aug 28
Last Quarter
Sep 5
New

Hourly Weather History & Observations

Time (EDT) Temp. Dew Point Humidity Pressure Visibility Wind Dir Wind Speed Gust Speed Precip Events Conditions
12:03 AM 69.8 °F 68.0 °F 94% 29.94 in 0.5 mi Calm Calm - N/A Fog Fog
12:13 AM 69.8 °F 68.0 °F 94% 29.94 in 0.2 mi WSW 3.5 mph - N/A Fog Fog
12:53 AM 69.1 °F 68.0 °F 96% 29.93 in 0.2 mi SW 4.6 mph - N/A Fog Fog
1:27 AM 69.8 °F 68.0 °F 94% 29.92 in 0.5 mi Calm Calm - N/A Fog Fog
1:30 AM 69.8 °F 68.0 °F 94% 29.92 in 0.2 mi Calm Calm - N/A Fog Fog
1:53 AM 69.1 °F 66.9 °F 93% 29.91 in 0.2 mi Calm Calm - N/A Fog Fog
2:15 AM 69.8 °F 66.2 °F 88% 29.91 in 0.2 mi Calm Calm - 0.01 in Fog Fog
2:53 AM 68.0 °F 66.9 °F 96% 29.91 in 0.2 mi Calm Calm - 0.01 in Fog Fog
3:08 AM 68.0 °F 66.2 °F 94% 29.90 in 0.2 mi Calm Calm - N/A Fog Fog
3:15 AM 68.0 °F 66.2 °F 94% 29.90 in 0.2 mi Calm Calm - N/A Fog Fog
3:27 AM 68.0 °F 66.2 °F 94% 29.90 in 0.2 mi Calm Calm - N/A Fog Fog
3:46 AM 66.2 °F 64.4 °F 94% 29.89 in 0.2 mi Calm Calm - N/A Fog Fog
3:53 AM 66.9 °F 66.0 °F 97% 29.89 in 0.2 mi Calm Calm - N/A Fog Fog
4:30 AM 66.2 °F 64.4 °F 94% 29.89 in 0.5 mi Calm Calm - N/A Fog Fog
4:37 AM 66.2 °F 64.4 °F 94% 29.89 in 0.5 mi Calm Calm - N/A Fog Fog
4:45 AM 66.2 °F 64.4 °F 94% 29.89 in 0.2 mi Calm Calm - N/A Fog Fog
4:53 AM 66.0 °F 64.9 °F 96% 29.89 in 0.2 mi Calm Calm - N/A Fog Fog
5:00 AM 66.2 °F 64.4 °F 94% 29.89 in 0.5 mi Calm Calm - N/A Fog Fog
5:16 AM 66.2 °F 64.4 °F 94% 29.89 in 0.2 mi Calm Calm - N/A Fog Fog
5:28 AM 66.2 °F 64.4 °F 94% 29.89 in 0.5 mi Calm Calm - N/A Fog Fog
5:53 AM 66.0 °F 64.9 °F 96% 29.88 in 0.5 mi SSE 3.5 mph - N/A Fog Fog
5:56 AM 66.2 °F 64.4 °F 94% 29.88 in 0.2 mi SSE 3.5 mph - N/A Fog Fog
6:01 AM 66.2 °F 64.4 °F 94% 29.88 in 0.2 mi South 3.5 mph - N/A Fog Fog
6:09 AM 66.2 °F 64.4 °F 94% 29.89 in 0.2 mi Calm Calm - N/A Fog Fog
6:53 AM 66.9 °F 66.0 °F 97% 29.88 in 0.2 mi Calm Calm - N/A Fog Fog
7:53 AM 68.0 °F 66.9 °F 96% 29.86 in 0.2 mi SE 3.5 mph - N/A Fog Fog
8:06 AM 68.0 °F 66.2 °F 94% 29.88 in 0.2 mi South 6.9 mph - N/A Fog Fog
8:26 AM 68.0 °F 66.2 °F 94% 29.87 in 0.8 mi South 5.8 mph - N/A   Mist
8:38 AM 68.0 °F 66.2 °F 94% 29.87 in 1.5 mi SSE 4.6 mph - N/A   Overcast
8:53 AM 68.0 °F 66.9 °F 96% 29.86 in 1.8 mi SSE 5.8 mph - N/A   Overcast
9:05 AM 68.0 °F 66.2 °F 94% 29.86 in 2.5 mi SSE 4.6 mph - N/A   Overcast
9:13 AM 68.0 °F 66.2 °F 94% 29.86 in 4.0 mi SSE 6.9 mph - N/A   Overcast
9:49 AM 68.0 °F 66.2 °F 94% 29.86 in 2.0 mi South 8.1 mph - N/A   Overcast
9:53 AM 68.0 °F 66.9 °F 96% 29.85 in 2.0 mi South 9.2 mph - N/A   Overcast
10:00 AM 68.0 °F 66.2 °F 94% 29.85 in 6.0 mi South 6.9 mph - N/A   Overcast
10:53 AM 69.1 °F 66.9 °F 93% 29.86 in 10.0 mi South 6.9 mph - N/A   Mostly Cloudy
11:53 AM 69.1 °F 66.9 °F 93% 29.86 in 10.0 mi SSW 6.9 mph - 0.00 in Rain Light Rain
12:53 PM 69.1 °F 68.0 °F 96% 29.86 in 5.0 mi Calm Calm - 0.04 in Rain Light Rain
1:01 PM 69.8 °F 66.2 °F 88% 29.86 in 4.0 mi Calm Calm - 0.01 in Rain Light Rain
1:31 PM 69.8 °F 66.2 °F 88% 29.84 in 5.0 mi Calm Calm - 0.06 in Rain , Thunderstorm Rain
1:39 PM 69.8 °F 68.0 °F 94% 29.83 in 5.0 mi Calm Calm - 0.07 in Rain Rain
1:50 PM 69.8 °F 68.0 °F 94% 29.82 in 4.0 mi East 4.6 mph - 0.09 in Rain Rain
1:53 PM 69.1 °F 66.9 °F 93% 29.81 in 4.0 mi East 6.9 mph - 0.11 in Rain Rain
2:00 PM 69.8 °F 68.0 °F 94% 29.81 in 2.0 mi ESE 5.8 mph - 0.02 in Rain Rain
2:53 PM 69.1 °F 66.9 °F 93% 29.76 in 2.0 mi SE 9.2 mph - 0.12 in Rain Light Rain
3:00 PM 69.8 °F 66.2 °F 88% 29.75 in 2.0 mi SE 9.2 mph - 0.02 in Rain Rain
3:53 PM 69.1 °F 66.0 °F 90% 29.74 in 10.0 mi ESE 8.1 mph - 0.09 in Rain Light Rain
4:53 PM 69.1 °F 66.0 °F 90% 29.71 in 5.0 mi ENE 3.5 mph - 0.00 in Rain Rain
5:46 PM 68.0 °F 66.2 °F 94% 29.70 in 2.0 mi SE 3.5 mph - 0.09 in Rain Heavy Rain
5:48 PM 68.0 °F 66.2 °F 94% 29.70 in 1.8 mi ESE 3.5 mph - 0.11 in Rain Heavy Rain
5:53 PM 68.0 °F 66.0 °F 93% 29.69 in 1.5 mi East 8.1 mph - 0.16 in Rain Heavy Rain
5:59 PM 68.0 °F 66.2 °F 94% 29.69 in 2.0 mi East 6.9 mph - 0.02 in Rain Rain
6:09 PM 68.0 °F 66.2 °F 94% 29.69 in 4.0 mi ENE 4.6 mph - 0.03 in Rain Light Rain
6:46 PM 69.8 °F 66.2 °F 88% 29.69 in 2.5 mi ENE 3.5 mph - 0.05 in Rain Light Rain
6:53 PM 69.1 °F 66.9 °F 93% 29.69 in 2.5 mi ENE 3.5 mph - 0.05 in Rain Light Rain
7:00 PM 69.8 °F 66.2 °F 88% 29.69 in 5.0 mi East 5.8 mph - 0.00 in Rain Light Rain
7:24 PM 69.8 °F 66.2 °F 88% 29.69 in 9.0 mi East 6.9 mph - 0.00 in   Overcast
7:46 PM 69.8 °F 66.2 °F 88% 29.70 in 9.0 mi NE 3.5 mph - 0.00 in   Overcast
7:53 PM 69.1 °F 66.9 °F 93% 29.70 in 9.0 mi NE 4.6 mph - 0.00 in   Overcast
8:04 PM 69.8 °F 66.2 °F 88% 29.70 in 9.0 mi NNE 4.6 mph - N/A   Overcast
8:35 PM 69.8 °F 66.2 °F 88% 29.70 in 9.0 mi NNE 5.8 mph - N/A   Overcast
8:44 PM 69.8 °F 66.2 °F 88% 29.70 in 8.0 mi North 5.8 mph - N/A   Overcast
8:53 PM 69.1 °F 66.9 °F 93% 29.70 in 8.0 mi NNE 4.6 mph - N/A   Overcast
9:53 PM 68.0 °F 66.0 °F 93% 29.71 in 6.0 mi NNW 4.6 mph - N/A   Overcast
10:09 PM 66.2 °F 66.2 °F 100% 29.70 in 7.0 mi North 4.6 mph - N/A   Mostly Cloudy
10:17 PM 66.2 °F 64.4 °F 94% 29.70 in 7.0 mi North 4.6 mph - N/A   Scattered Clouds
10:53 PM 66.0 °F 64.9 °F 96% 29.70 in 8.0 mi North 4.6 mph - N/A   Partly Cloudy
11:21 PM 66.2 °F 64.4 °F 94% 29.70 in 7.0 mi Calm Calm - N/A   Mostly Cloudy
11:51 PM 66.2 °F 64.4 °F 94% 29.71 in 7.0 mi West 5.8 mph - N/A   Scattered Clouds
11:53 PM 66.0 °F 64.0 °F 93% 29.71 in 7.0 mi West 4.6 mph - N/A   Partly Cloudy